Location: Pedholt
(56.0260°N, 10.2097°E)
Time: 02:54:28
(UTC+00:00)

SR - Pass Details

Date: 02 August 2021
Orbit: 581 x 873 km, 66.7° (Epoch: 27 September)

Event Time Altitude Azimuth Distance (km) Brightness Sun altitude
Rises 08:04:05 0° 264° (W) 3,379 ? 36.3°
Reaches altitude 10° 08:06:51 10° 274° (W) 2,408 ? 36.6°
Maximum altitude 08:11:50 33° 338° (NNW) 1,286 ? 37.2°
Drops below altitude 10° 08:16:29 10° 42° (NE) 2,241 ? 37.8°
Sets 08:18:59 0° 53° (NE) 3,113 ? 38.1°
